Weather History for LIRA - October, 2013

Change the Weather History Date:

Sunday, October 20, 2013

  Actual Average Record
Temperature  
Mean Temperature 65 °F -  
Max Temperature 75 °F 64 °F 78 °F (2012)
Min Temperature 55 °F 46 °F 42 °F (2007)
Growing Degree Days 15 (Base 50)    
Moisture  
Dew Point 59 °F    
Average Humidity 81    
Maximum Humidity 100    
Minimum Humidity 61    
Precipitation  
Precipitation 0.00 in 0.15 in - ()
Sea Level Pressure  
Sea Level Pressure 30.24 in    
Wind  
Wind Speed 2 mph ()    
Max Wind Speed 9 mph    
Max Gust Speed -    
Visibility 6.2 miles    
Events      
Averages and records for this station are not official NWS values.
T = Trace of Precipitation, MM = Missing Value Source: Averaged Metar Reports

Daily Weather History Graph

Daily Weather History Graph

Search for Another Location

Airport or City:

Trip Planner

Search our weather history database for the weather conditions in past years. The results will help you decide how hot, cold, wet, or windy it might be!

Date:

Astronomy

Oct. 20, 2013 Rise Set
Actual Time 7:27 AM CEST 6:20 PM CEST
Civil Twilight 6:59 AM CEST 6:48 PM CEST
Nautical Twilight 6:26 AM CEST 7:21 PM CEST
Astronomical Twilight 5:54 AM CEST 7:53 PM CEST
Moon 7:15 PM CEST (10/20) 8:49 AM CEST (10/20)
Length of Visible Light 11h 49m
Length of Day
10h 52m
Full, 98% of the Moon is Illuminated
Oct 20
Full
Oct 27
Last Quarter
Nov 3
New
Nov 10
First Quarter
Nov 17
Full

Hourly Weather History & Observations

Time (CEST) Temp. Dew Point Humidity Pressure Visibility Wind Dir Wind Speed Gust Speed Precip Events Conditions
12:15 AM 60.8 °F 53.6 °F 77% 30.24 in - East 1.2 mph - N/A   Clear
12:45 AM 60.8 °F 53.6 °F 77% 30.24 in - East 2.3 mph - N/A   Clear
1:15 AM 59.0 °F 51.8 °F 77% 30.24 in - East 4.6 mph - N/A   Clear
1:45 AM 59.0 °F 53.6 °F 82% 30.24 in - Calm Calm - N/A   Clear
2:15 AM 59.0 °F 53.6 °F 82% 30.24 in - ENE 1.2 mph - N/A   Clear
2:45 AM 57.2 °F 55.4 °F 94% 30.24 in - East 2.3 mph - N/A   Clear
3:15 AM 57.2 °F 55.4 °F 94% 30.24 in - East 1.2 mph - N/A   Clear
3:45 AM 57.2 °F 55.4 °F 94% 30.24 in - Calm Calm - N/A   Clear
4:15 AM 57.2 °F 55.4 °F 94% 30.24 in - NNE 1.2 mph - N/A   Clear
4:45 AM 55.4 °F 53.6 °F 94% 30.21 in - NNE 2.3 mph - N/A   Clear
5:15 AM 55.4 °F 53.6 °F 94% 30.21 in - NE 1.2 mph - N/A   Clear
5:45 AM 55.4 °F 55.4 °F 100% 30.21 in - Calm Calm - N/A   Clear
6:15 AM 55.4 °F 55.4 °F 100% 30.21 in - Calm Calm - N/A   Clear
6:45 AM 55.4 °F 55.4 °F 100% 30.21 in - Calm Calm - N/A   Clear
7:15 AM 55.4 °F 55.4 °F 100% 30.21 in 6.2 mi Calm Calm - N/A   Partly Cloudy
7:45 AM 55.4 °F 53.6 °F 94% 30.21 in 6.2 mi Calm Calm - N/A   Scattered Clouds
8:15 AM 57.2 °F 55.4 °F 94% 30.24 in 6.2 mi NNE 2.3 mph - N/A   Scattered Clouds
8:45 AM 57.2 °F 55.4 °F 94% 30.24 in 6.2 mi NE 1.2 mph - N/A   Scattered Clouds
9:15 AM 60.8 °F 59.0 °F 94% 30.24 in 6.2 mi ENE 1.2 mph - N/A   Scattered Clouds
9:45 AM 64.4 °F 59.0 °F 83% 30.27 in 6.2 mi NNW 2.3 mph - N/A   Scattered Clouds
10:15 AM 64.4 °F 59.0 °F 83% 30.27 in 6.2 mi North 2.3 mph - N/A   Scattered Clouds
10:45 AM 66.2 °F 59.0 °F 78% 30.27 in 6.2 mi NNW 1.2 mph - N/A   Scattered Clouds
11:15 AM 66.2 °F 59.0 °F 78% 30.27 in 6.2 mi NNW 2.3 mph - N/A   Scattered Clouds
11:45 AM 68.0 °F 59.0 °F 73% 30.27 in 6.2 mi NNW 1.2 mph - N/A   Mostly Cloudy
12:15 PM 69.8 °F 59.0 °F 68% 30.27 in 6.2 mi NNW 2.3 mph - N/A   Mostly Cloudy
12:45 PM 71.6 °F 59.0 °F 64% 30.27 in 6.2 mi NNW 2.3 mph - N/A   Mostly Cloudy
1:15 PM 73.4 °F 60.8 °F 65% 30.27 in 6.2 mi NE 2.3 mph - N/A   Mostly Cloudy
1:45 PM 75.2 °F 60.8 °F 61% 30.27 in 6.2 mi ENE 2.3 mph - N/A   Scattered Clouds
2:15 PM 75.2 °F 60.8 °F 61% 30.24 in 6.2 mi SSE 4.6 mph - N/A   Scattered Clouds
2:45 PM 75.2 °F 62.6 °F 65% 30.24 in 6.2 mi Calm Calm - N/A   Mostly Cloudy
3:15 PM 75.2 °F 62.6 °F 65% 30.24 in 6.2 mi ENE 2.3 mph - N/A   Mostly Cloudy
3:45 PM 75.2 °F 62.6 °F 65% 30.24 in 6.2 mi South 4.6 mph - N/A   Scattered Clouds
4:15 PM 75.2 °F 62.6 °F 65% 30.24 in 6.2 mi South 6.9 mph - N/A   Scattered Clouds
4:45 PM 75.2 °F 62.6 °F 65% 30.24 in 6.2 mi South 9.2 mph - N/A   Partly Cloudy
5:15 PM 73.4 °F 60.8 °F 65% 30.24 in 6.2 mi South 5.8 mph - N/A   Partly Cloudy
5:45 PM 73.4 °F 62.6 °F 69% 30.24 in 6.2 mi South 6.9 mph - N/A   Partly Cloudy
6:15 PM 73.4 °F 68.0 °F 83% 30.24 in 6.2 mi South 5.8 mph - N/A   Partly Cloudy
6:45 PM 71.6 °F 68.0 °F 88% 30.24 in 6.2 mi South 4.6 mph - N/A   Scattered Clouds
7:15 PM 68.0 °F 64.4 °F 88% 30.24 in 6.2 mi South 4.6 mph - N/A   Partly Cloudy
7:45 PM 68.0 °F 64.4 °F 88% 30.24 in 6.2 mi South 5.8 mph - N/A   Partly Cloudy
8:15 PM 68.0 °F 64.4 °F 88% 30.24 in 6.2 mi SSE 6.9 mph - N/A   Partly Cloudy
8:45 PM 68.0 °F 62.6 °F 83% 30.24 in 6.2 mi SE 8.1 mph - N/A   Scattered Clouds
9:15 PM 68.0 °F 60.8 °F 78% 30.24 in 6.2 mi South 6.9 mph - N/A   Scattered Clouds
9:45 PM 68.0 °F 59.0 °F 73% 30.24 in 6.2 mi South 4.6 mph - N/A   Scattered Clouds
10:15 PM 68.0 °F 60.8 °F 78% 30.24 in 6.2 mi South 4.6 mph - N/A   Scattered Clouds
10:45 PM 68.0 °F 60.8 °F 78% 30.24 in 6.2 mi South 2.3 mph - N/A   Mostly Cloudy
11:15 PM 68.0 °F 64.4 °F 88% 30.27 in 6.2 mi NNW 1.2 mph - N/A   Mostly Cloudy
11:45 PM 68.0 °F 64.4 °F 88% 30.27 in 6.2 mi East 2.3 mph - N/A   Mostly Cloudy